TimePST,TemperatureF,Dew PointF,Humidity,Sea Level PressureIn,VisibilityMPH,Wind Direction,Wind SpeedMPH,Gust SpeedMPH,PrecipitationIn,Events,Conditions,WindDirDegrees,DateUTC
12:53 AM,63.0,50.0,63,30.10,8.0,North,4.6,-,0.00,,Overcast,10,2013-03-03 08:53:00
1:53 AM,64.9,48.0,54,30.07,10.0,Calm,Calm,-,N/A,,Overcast,0,2013-03-03 09:53:00
2:53 AM,63.0,50.0,63,30.05,10.0,WSW,4.6,-,0.00,Rain,Light Rain,250,2013-03-03 10:53:00
3:53 AM,63.0,48.9,60,30.03,10.0,SE,3.5,-,0.00,,Overcast,140,2013-03-03 11:53:00
4:53 AM,62.1,46.0,56,30.03,10.0,SSE,3.5,-,N/A,,Overcast,150,2013-03-03 12:53:00
5:53 AM,62.1,46.0,56,30.05,10.0,WSW,5.8,-,N/A,,Overcast,250,2013-03-03 13:53:00
6:53 AM,61.0,46.9,60,30.04,10.0,NNW,5.8,-,N/A,,Overcast,330,2013-03-03 14:53:00
7:53 AM,61.0,48.0,62,30.06,9.0,North,4.6,-,0.00,,Overcast,350,2013-03-03 15:53:00
8:53 AM,62.1,48.0,60,30.06,10.0,Calm,Calm,-,N/A,,Overcast,0,2013-03-03 16:53:00
9:53 AM,64.0,45.0,50,30.06,10.0,North,3.5,-,N/A,,Overcast,360,2013-03-03 17:53:00
10:53 AM,64.0,45.0,50,30.06,10.0,WNW,4.6,-,N/A,,Overcast,300,2013-03-03 18:53:00
11:53 AM,66.0,43.0,43,30.05,10.0,WNW,10.4,-,N/A,,Overcast,300,2013-03-03 19:53:00
12:53 PM,66.0,45.0,47,30.04,10.0,NW,6.9,-,N/A,,Mostly Cloudy,310,2013-03-03 20:53:00
1:53 PM,69.1,45.0,42,30.01,10.0,North,5.8,-,N/A,,Mostly Cloudy,10,2013-03-03 21:53:00
2:53 PM,69.1,45.0,42,30.01,10.0,NNW,5.8,-,N/A,,Mostly Cloudy,340,2013-03-03 22:53:00
3:53 PM,66.9,44.1,44,30.00,10.0,North,5.8,-,N/A,,Mostly Cloudy,10,2013-03-03 23:53:00
4:53 PM,66.9,46.0,47,30.00,10.0,North,6.9,-,N/A,,Mostly Cloudy,350,2013-03-04 00:53:00
5:53 PM,64.9,41.0,42,30.00,10.0,NW,9.2,-,N/A,,Mostly Cloudy,320,2013-03-04 01:53:00
6:53 PM,64.0,43.0,46,30.00,10.0,NW,9.2,-,N/A,,Overcast,320,2013-03-04 02:53:00
7:53 PM,61.0,43.0,52,30.00,10.0,NW,5.8,-,N/A,,Mostly Cloudy,320,2013-03-04 03:53:00
8:53 PM,59.0,46.0,62,30.01,10.0,NW,5.8,-,N/A,,Mostly Cloudy,310,2013-03-04 04:53:00
9:53 PM,57.0,46.0,67,30.03,10.0,WNW,8.1,-,N/A,,Scattered Clouds,290,2013-03-04 05:53:00
10:53 PM,55.9,46.0,69,30.03,10.0,WNW,9.2,-,N/A,,Partly Cloudy,290,2013-03-04 06:53:00
11:53 PM,55.0,46.0,72,30.04,10.0,NW,9.2,-,N/A,,Scattered Clouds,320,2013-03-04 07:53:00